Zurück zum Katalog

CONNECTA IOT-12

AktivKommunikationSSO
NORAD 64553·PAYLOAD·🇹🇷 Turkey

Gestartet Jun 23, 2025 von Vandenberg Space Force Base

Loading…

Nächste Überflüge (nächste 24 Stunden)

TLE

AktuellSource: Space-Track

Epoche: Sep 14, 2026, 07:16 UTC

1 64553U 25135AB  26257.30289246  .00002809  00000-0  12965-3 0  9990
2 64553  97.4825  12.1087 0002354  82.4080 277.7423 15.21049985 68410

Verfolge CONNECTA IOT-12 in Echtzeit mit AllMySat

Download on the App Store